Tracking 19246 objects as of 21-Aug-2018
HD Live streaming from Space Station
objects crossing your sky now

ST5-B

Track ST5-B now!
10-day predictions
ST5-B is classified as:


NORAD ID: 28981
Int'l Code: 2006-008B
Perigee: 271.6 km
Apogee: 2,809.9 km
Inclination: 105.5 °
Period: 116.7 minutes
Semi major axis: 7911 km
RCS: 0.3032 m2 (medium)
Launch date: March 22, 2006
Source: United States (US)
Launch site: Pegasus launched from Western Range Air Space (WRAS)
aabbcc
Your satellite tracking list
Your tracking list is empty




NASA's NSSDC Master Catalog

Two Line Element Set (TLE):
1 28981U 06008B   18232.59551934 +.00010165 +33920-5 +22180-3 0  9990
2 28981 105.4785 105.2230 1604094 219.5761 127.6754 12.33652896511125
Source of the keplerian elements: AFSPC